KOREASAT 7

Last updated on Mon Sep 15 2025 00:02:49 GMT+0000 (Coordinated Universal Time)

1 42691U 17023A 25257.25147008 -.00000374 00000+0 00000+0 0 9996 2 42691 0.0244 32.7831 0001118 144.1178 23.0037 1.00272997 30606
UTC large
Height (km)
Speed (km/s)
/
Latitude / Longitude
Inclination (degrees)
Orbital Period (minutes)
Azimuth
Elevation
Range (km)
Doppler Factor

Next 0 passes for location: London (51.5072 / 0.1276)

Sorry there are no passes over London.